Home   Weather   Erie   Past weeks

Flag for USA Past Weather in Erie, Pennsylvania, USA — Yesterday and Last 2 Weeks

Now
66 °F

Thundershowers. Overcast.


Feels Like: 66 °F
Forecast: 58 / 72 °F
Wind: 7 mph from West

Location: Erie International Airport

Current Time: Sep 26, 2016 at 11:44:04 AM

Latest Report: Sep 26, 2016 at 10:51 AM


Visibility: 10 mi

Pressure: 29.91 "Hg

Humidity: 61%

Dew Point: 52 °F

Location of ErieLocation

Past Weather in Erie — Graph

°F

Erie Temperature Yesterday

Maximum temperature yesterday: 68 °F (at 1:51 PM)
Minimum temperature yesterday: 48 °F (at 6:51 AM)
Average temperature yesterday: 58 °F

High & Low Weather Summary for the Past Weeks

 TemperatureHumidityPressure
High83 °F (Sep 22, 12:51 PM)93% (Sep 17, 5:51 PM)30.32 "Hg (Sep 17, 5:51 PM)
Low48 °F (Sep 25, 6:51 AM)44% (Sep 25, 12:51 PM)29.89 "Hg (Sep 26, 9:51 AM)
Average67 °F71%30.11 "Hg
* Reported Sep 11 9:51 AM — Sep 26 9:51 AM, Erie, Weather by CustomWeather, © 2016

Note: Actual official high and low records may vary slightly from our data, if they occured in-between our weather recording intervals... More about our weather records

Advertising

Erie Weather History for the Previous 24 Hours

Scroll right to see more
 ConditionsComfort  
Time TempWeatherWind HumidityBarometerVisibility
9:51 AM
Mon, Sep 26
66 °FOvercast.17 mph54%29.89 "Hg10 mi
8:51 AM64 °FPartly sunny.18 mph58%29.90 "Hg10 mi
7:51 AM60 °FSunny.16 mph62%29.92 "Hg10 mi
6:51 AM58 °FClear.20 mph65%29.93 "Hg10 mi
5:51 AM59 °FClear.14 mph62%29.95 "Hg10 mi
4:51 AM59 °FClear.13 mph60%29.96 "Hg10 mi
3:51 AM60 °FClear.14 mph58%29.98 "Hg10 mi
2:51 AM59 °FPassing clouds.13 mph60%30.02 "Hg10 mi
1:51 AM57 °FPassing clouds.9 mph67%30.04 "Hg10 mi
12:51 AM58 °FClear.12 mph65%30.04 "Hg10 mi
11:51 PM
Sun, Sep 25
59 °FClear.12 mph64%30.06 "Hg10 mi
10:51 PM58 °FClear.3 mph70%30.09 "Hg10 mi
9:51 PM58 °FClear.3 mph75%30.11 "Hg10 mi
8:51 PM57 °FClear.6 mph74%30.12 "Hg10 mi
7:51 PM60 °FClear.7 mph67%30.13 "Hg10 mi
6:51 PM63 °FSunny.8 mph60%30.13 "Hg10 mi
5:51 PM66 °FSunny.10 mph54%30.13 "Hg10 mi
4:51 PM66 °FSunny.12 mph56%30.14 "Hg10 mi
3:51 PM68 °FSunny.10 mph53%30.16 "Hg10 mi
2:51 PM67 °FSunny.13 mph53%30.17 "Hg10 mi
1:51 PM68 °FSunny.10 mph51%30.19 "Hg10 mi
12:51 PM67 °FSunny.6 mph44%30.20 "Hg10 mi
11:51 AM65 °FSunny.5 mph47%30.22 "Hg10 mi
Weather by CustomWeather, © 2016

See weather overviewHow to use our weather pages